Погода в Шоркистрах

Россия / Чувашская Республика     55°38′57″N   47°45′02″E
темп.,
°C
ветер,
м/с
пор.,
м/с
влажн.,
%
обл.,
%
осадки,
мм/ч
давл.,
гПа
погр.,
м
29 июля, чт
чт2900:00+14ююз335683 0.0 101328
03:00+13ююз336673 0.0 101240
06:00+17ююз396932 0.0 1011212
09:00+21зюз6960100 0.0 1011649
12:00+22юз5762100 0.0 1010747
15:00+17ю5990100 0.3 1009388
18:00+17ююв4109098 0.1 1007362
21:00+15ююв369656 0.1 1005140
30 июля, пт
пт3000:00+16юз229796 0.0 100430
03:00+15з239721 0.0 100459
06:00+17з489340 0.0 1005279
09:00+23з576698 0.0 1005846
12:00+27з5751100 0.2 10051869
15:00+28зюз5743100 0.2 10052357
18:00+25юз3662100 0.0 1004195
21:00+20зюз51084100 0.4 1005317
31 июля, сб
сб3100:00+18ююз2296100 0.3 100550
03:00+16ююз379622 0.3 1004161
06:00+19ююз358711 0.0 1004235
09:00+23зюз567661 0.0 1003763
12:00+26з795947 0.3 10041538
15:00+28з81040100 0.4 10042485
18:00+24зюз595766 0.0 1005954
21:00+19юз46720 0.0 100787
1 августа, вс
вс100:00+16зюз47790 0.0 1008117
03:00+16зюз487141 0.0 1008133
06:00+19зюз486195 0.0 1010224
09:00+23зюз4650100 0.0 1010632
12:00+27з793959 0.0 10102170
15:00+28з6738100 0.0 10102245
18:00+26з364873 0.0 1010271
21:00+20ююз34617 0.0 101149
2 августа, пн
пн200:00+19ююз47685 0.0 1010104
03:00+19ю413686 0.0 1010226
06:00+21ююз5156144 0.0 1010431
09:00+26юз7124697 0.0 1010704
12:00+30зюз61038100 0.0 10091449
15:00+31юз694079 0.0 10091908
18:00+29ююз59480 0.0 1008479
21:00+20з111791100 1.3 1009357